SCP
0 0 0 0 0 0 0 0 0 0 0 0 0 0 0 0 0 0 0 0 0 0 0 0 0 0 0 0 0 0 0 0 0 0 0 0 0 0 0 0 0 0 0 0
0 0 0 0 0 0 0 0 0 0 0 0 0 0 0 0 0 0 0 0 0 0 0 0 0 0 0 0 0 0 0 0 0 0 0 0 0 0 0 0 0 0 0 0
0 0 0 0 0 0 0 0 0 0 0 0 0 0 0 0 0 0 0 0 0 0 0 0 0 0 0 0 0 0 0 0 0 0 0 0 0 0 0 0 0 0 0 0
0 0 0 0 0 0 0 0 0 0 0 0 0 0 0 0 0 0 0 0 0 0 0 0 0 0 0 0 0 0 0 0 0 0 0 0 0 0 0 0 0 0 0 0
0 0 0 -0 0 0 0 0 0 0 0 0 0 0 0 0 0 0 0 0 0 0 0 0 0 0 0 0 0 0 0 0 0 0 0 0 0 0 0 0 0 0 0 0
0 0 0 0 0 0 0 0 0 0 0 0 0 0 0 0 0 0 0 0 0 0 0 0 0 0 0 0 0 0 0 0 0 0 0 0 0 0 0 0 0 0 0 0
0 0 0 -0 -0 0 0 0 0 0 0 0 0 0 0 0 0 0 0 0 0 0 0 0 0 0 0 0 0 0 0 0 0 0 0 0 0 0 0 0 0 0 0 0
0 0 0 -0 -0 0 0 0 0 0 0 0 0 0 0 0 0 0 0 0 0 0 0 0 0 0 0 0 0 0 0 0 0 0 0 0 0 0 0 0 0 0 0 0
0 0 0 -0 -0 0 0 0 0 0 0 0 0 0 0 0 0 0 0 0 0 0 0 0 0 0 0 0 0 0 0 0 0 0 0 0 0 0 0 0 0 0 0 0
0 0 0 0 0 0 0 0 0 0 0 0 0 0 0 0 0 0 0 0 0 0 0 0 0 0 0 0 0 0 0 0 0 0 0 0 0 0 0 0 0 0 0 0
0 0 0 0 0 0 0 0 0 0 0 0 0 0 0 0 0 0 0 0 0 0 0 0 0 0 0 0 0 0 0 0 0 0 0 0 0 0 0 0 0 0 0 0
0 0 0 0 0 0 0 0 0 0 0 0 0 0 0 0 0 0 0 0 0 0 0 0 0 0 0 0 0 0 0 0 0 0 0 0 0 0 0 0 0 0 0 0
0 0 0 0 0 0 0 0 0 0 0 0 0 0 0 0 0 0 0 0 0 0 0 0 0 0 0 0 0 0 0 0 0 0 0 0 0 0 0 0 0 0 0 0
0 0 0 0 0 0 0 0 0 0 0 0 0 0 0 0 0 0 0 0 0 0 0 0 0 0 0 0 0 0 0 0 0 0 0 0 0 0 0 0 0 0 0 0
0 0 0 0 0 0 0 0 0 0 0 0 0 0 0 0 0 -0 0 0 0 0 0 0 0 0 0 0 0 0 0 0 0 0 0 0 0 0 0 0 0 0 0 0
0 0 0 0 0 0 0 0 0 0 0 0 0 0 0 0 0 0 0 0 0 0 0 0 0 0 0 0 0 0 0 0 0 0 0 0 0 0 0 0 0 0 0 0
0 0 0 0 0 0 0 0 0 0 0 0 0 0 0 0 0 0 0 0 0 0 0 0 0 0 0 0 0 0 0 0 0 0 0 0 0 0 0 0 0 0 0 0
0 0 0 0 0 0 0 0 0 0 0 0 0 0 0 0 0 0 0 0 0 0 0 0 0 0 0 0 0 0 0 0 0 0 0 0 0 0 0 0 0 0 0 0
0 0 0 0 0 0 0 0 0 0 0 0 0 0 0 0 0 0 0 0 0 0 0 0 0 0 0 0 0 0 0 0 0 0 0 0 0 0 0 0 0 0 0 0
0 0 0 0 0 0 0 0 0 0 0 0 0 0 0 0 0 0 0 0 0 0 0 0 0 0 0 0 0 0 0 0 0 0 0 0 0 0 0 0 0 0 0 0
0 0 0 0 0 0 0 0 0 0 0 0 0 0 0 0 0 0 0 0 0 0 0 0 0 0 0 0 0 0 0 0 0 0 0 0 0 0 0 0 0 0 0 0
0 0 0 0 0 0 0 0 -0 -0 0 0 0 0 0 0 0 0 0 0 0 0 0 0 0 0 0 0 0 0 0 0 0 0 0 0 0 0 0 0 0 0 0 0
0 0 0 0 0 0 0 0 -0 -0 0 0 0 0 0 0 0 0 0 0 0 0 0 0 0 0 0 0 0 0 0 0 0 0 0 0 0 0 0 0 0 0 0 0
0 0 0 0 0 0 0 0 0 0 0 0 0 0 0 0 0 0 0 0 0 0 0 0 0 0 0 0 0 0 0 0 0 0 0 0 0 0 0 0 0 0 0 0
0 0 -0 -0 -0 0 0 0 0 0 0 0 0 0 0 0 0 0 0 0 0 0 0 0 0 0 0 0 0 0 0 0 0 0 0 0 0 0 0 0 0 0 0 0
0 0 -0 -0 -0 0 0 0 0 0 0 0 0 0 0 0 0 0 0 0 0 0 0 0 0 0 0 0 0 0 0 0 0 0 0 0 0 0 0 0 0 0 0 0
Wind_Speed
3 2 3 3 4 4 5 6 7 3 2 4 7 8 7 7 7 7 6 6 6 5 5 5 5 4 4 3 3 3 2 2 2 2 2 2 3 3 3 3 4 4 4 5
2 4 3 2 3 5 6 7 7 2 1 3 6 9 7 8 9 8 7 6 6 6 6 6 5 5 4 3 2 2 2 2 2 2 1 1 1 1 2 2 3 4 5 5
4 0 1 3 4 5 6 5 4 4 3 4 5 7 6 5 5 5 5 5 5 6 6 6 5 4 4 3 2 2 2 2 2 2 1 2 2 2 2 3 3 4 4 4
2 1 2 3 3 3 5 1 3 3 3 4 3 5 4 5 5 6 6 5 5 5 5 6 5 4 4 3 2 2 2 2 2 2 2 2 2 2 2 2 2 3 3 4
2 1 2 3 2 2 2 2 3 4 4 5 5 5 6 3 4 7 6 6 6 5 5 6 5 4 3 3 3 2 2 2 2 2 2 1 2 2 2 2 3 3 3 3
1 0 1 1 1 1 0 2 3 3 2 6 7 6 6 4 5 5 6 6 6 6 5 6 5 4 3 3 2 2 2 1 1 1 1 1 2 2 3 3 3 3 2 3
3 3 2 0 1 2 2 0 1 2 3 6 2 4 6 1 1 4 6 6 6 6 5 5 5 4 4 3 2 1 1 1 1 1 1 1 1 1 2 2 3 3 2 2
3 4 5 2 1 2 3 2 3 4 5 3 2 6 3 2 3 5 6 6 6 5 4 4 4 3 3 3 2 2 1 0 0 0 0 1 1 1 1 2 2 3 2 2
3 2 2 1 1 0 2 3 1 2 4 4 6 4 1 2 3 4 5 6 5 4 4 3 3 3 3 2 2 1 1 0 0 1 1 1 1 1 2 2 2 2 2 3
2 3 1 2 0 2 2 1 1 2 3 6 6 5 3 4 4 4 4 4 4 4 3 2 2 2 2 2 1 1 1 0 0 1 1 1 1 1 2 2 3 3 3 3
2 2 2 2 5 5 3 3 3 3 4 3 5 4 1 3 4 5 4 4 4 4 3 2 2 2 2 2 1 1 1 0 0 1 1 1 1 2 2 2 2 3 3 3
1 1 3 3 0 2 2 4 4 3 5 4 4 6 2 3 3 4 4 3 3 4 3 2 2 1 1 1 1 1 1 1 1 1 1 2 2 2 2 2 3 3 3 3
0 2 2 2 1 1 2 4 4 2 2 4 5 7 1 3 3 3 3 3 2 2 2 2 1 1 1 1 1 1 0 1 1 1 1 2 2 2 2 3 3 3 3 4
1 3 6 7 4 2 4 5 6 5 5 6 9 8 4 2 1 1 1 2 2 2 2 1 1 0 0 0 1 1 1 1 1 1 2 2 2 2 3 3 3 4 4 4
2 4 6 7 6 5 6 7 8 10 9 8 8 7 5 3 2 2 2 2 2 2 2 1 1 0 0 0 0 1 1 1 1 2 2 3 3 3 3 3 3 4 4 5
2 4 3 6 6 6 9 9 10 11 10 11 10 10 4 2 0 0 1 2 2 1 1 1 0 1 1 1 1 1 1 1 2 2 3 3 3 3 3 4 4 4 4 5
4 3 3 5 3 4 9 9 10 7 6 7 10 8 2 1 1 2 1 2 2 1 1 0 1 2 2 1 1 1 2 2 2 3 3 3 3 3 4 4 4 4 4 5
4 3 2 3 2 9 6 1 3 5 4 4 3 2 1 1 1 1 0 1 1 0 1 1 1 1 1 1 1 1 2 2 3 3 3 3 3 4 4 4 4 4 4 5
3 4 3 3 5 8 3 0 1 3 4 2 3 2 1 2 2 2 2 3 1 1 1 1 1 1 1 1 1 1 2 2 3 3 3 3 3 4 5 5 5 5 5 5
1 2 3 4 5 7 2 1 1 2 3 2 0 1 0 1 1 2 2 2 2 2 1 1 1 1 1 1 1 1 3 3 3 4 4 4 4 5 5 5 5 5 5 6
2 3 5 6 7 6 2 1 2 2 4 2 0 0 1 1 2 1 1 2 1 2 2 2 1 1 2 1 1 2 3 4 4 4 4 4 4 5 5 5 4 4 5 5
6 5 5 4 6 7 1 2 2 3 2 2 1 1 0 1 1 1 2 2 2 2 2 2 2 2 2 1 1 3 4 4 3 4 4 5 5 5 5 4 4 4 4 5
4 4 4 6 5 1 3 3 1 1 1 2 2 1 1 1 1 2 2 2 2 2 2 2 2 3 2 2 1 3 4 3 3 4 4 5 5 5 5 4 4 4 4 4
1 1 1 3 4 1 1 1 1 1 1 2 1 1 0 1 1 2 2 2 2 2 3 2 2 3 3 3 3 3 3 3 3 4 5 5 4 4 4 4 4 4 3 4
2 1 2 4 4 3 2 1 2 2 1 1 2 2 1 1 2 2 2 2 2 3 3 3 3 3 4 4 4 4 3 3 3 4 4 4 4 4 4 4 4 5 4 5
2 4 4 5 3 3 4 2 1 1 1 1 1 2 2 1 1 2 2 2 2 3 3 3 3 4 4 4 4 4 3 2 3 4 4 4 4 4 4 4 5 7 7 10
Wind_Direction
198 217 218 222 231 272 287 282 277 274 173 223 243 252 228 199 200 196 189 180 174 167 152 147 144 136 127 118 105 95 74 53 50 40 24 14 11 8 13 18 21 19 12 10
224 229 239 273 267 262 265 273 281 298 152 258 269 268 242 204 201 194 187 183 172 160 152 150 148 142 136 129 114 93 81 71 60 40 23 14 10 1 5 6 15 17 12 8
228 231 259 248 255 265 256 255 278 295 304 254 282 280 230 198 186 177 179 173 165 165 161 155 152 147 134 128 121 99 76 77 66 35 34 31 18 356 4 4 7 8 6 6
238 226 256 245 248 261 261 297 288 288 294 270 205 281 249 190 186 189 187 173 168 159 151 149 149 150 146 140 124 105 81 74 66 52 47 37 21 2 344 341 341 350 359 1
229 194 248 246 258 269 272 334 281 263 262 280 237 249 270 170 209 207 186 171 161 156 151 148 149 155 143 127 123 121 102 81 72 67 60 28 11 353 348 348 344 349 353 358
243 75 308 324 354 269 279 284 260 256 253 260 226 215 265 207 211 178 166 158 152 149 146 143 141 141 130 122 121 126 116 83 76 75 56 26 5 353 349 348 341 343 345 345
222 185 168 132 166 182 216 239 321 269 226 246 189 209 247 208 115 146 154 146 138 138 142 141 144 144 140 135 130 131 130 89 64 71 50 357 358 348 330 331 331 330 333 333
245 236 170 179 189 200 212 222 204 240 257 277 245 233 236 91 80 99 115 125 125 129 133 135 140 141 140 137 136 152 158 130 58 38 352 348 3 345 315 321 323 312 309 312
262 242 110 119 338 280 213 222 285 293 292 276 246 227 211 118 109 116 124 124 133 139 139 136 132 130 131 138 150 162 165 168 11 329 337 329 344 327 315 313 318 309 309 313
307 282 171 128 253 268 283 305 162 203 252 268 260 232 223 177 179 156 149 147 144 132 126 123 123 127 134 143 142 128 136 163 255 311 314 330 321 308 309 309 308 310 310 315
304 252 216 190 208 208 191 218 222 237 239 247 280 267 46 151 164 167 165 153 144 140 139 140 144 148 147 131 126 127 148 167 243 286 301 303 292 299 306 299 297 307 307 306
290 262 248 229 217 350 209 212 191 201 247 236 261 270 33 69 96 119 132 134 129 132 139 147 151 147 144 143 142 147 193 211 236 264 286 279 284 292 298 299 298 301 304 302
153 207 268 275 267 303 267 246 239 249 259 237 239 259 70 74 73 96 118 126 132 137 135 139 142 137 150 159 160 169 223 261 287 279 279 278 278 285 286 290 295 297 300 297
304 227 224 242 265 206 231 228 215 206 221 242 237 250 254 221 196 162 151 161 168 158 152 155 143 132 191 167 175 204 253 263 284 275 265 268 269 272 276 281 290 293 296 295
213 241 253 270 283 270 257 243 216 216 227 236 254 259 262 236 225 208 183 174 165 164 167 164 171 242 308 301 248 237 255 266 273 267 261 261 269 273 280 284 287 291 295 298
223 248 273 271 260 257 264 253 236 233 237 246 265 272 274 271 359 198 179 173 191 201 186 176 247 281 274 282 282 279 273 283 277 266 261 267 271 275 278 280 284 291 292 291
205 210 237 264 267 290 260 235 222 221 218 218 242 251 255 275 237 214 217 203 201 200 218 227 249 261 265 259 278 279 282 290 280 275 271 266 272 280 281 287 289 286 288 291
206 202 226 265 296 247 245 188 197 210 227 229 240 270 253 265 276 305 8 116 95 33 309 263 249 260 272 263 273 285 298 289 279 281 282 288 284 282 284 282 281 282 282 283
205 194 223 231 253 267 264 274 159 200 256 240 236 269 341 19 354 351 50 66 63 10 323 280 244 256 254 259 277 300 294 288 285 288 291 292 293 289 283 281 280 281 280 281
199 198 219 229 248 259 260 12 17 113 260 332 199 228 337 38 288 269 23 37 21 3 355 335 336 338 304 285 279 275 281 281 280 286 293 293 289 285 282 275 275 277 280 283
184 208 221 236 251 260 319 342 76 169 263 341 52 162 123 247 256 279 352 5 8 359 350 354 350 322 298 292 268 270 276 277 287 298 298 295 291 285 280 277 275 275 281 283
192 194 204 208 231 249 58 102 168 233 323 354 11 39 57 318 336 348 354 354 355 351 346 347 337 313 309 304 277 280 281 290 301 300 296 293 290 291 295 286 284 279 278 280
201 200 201 204 221 176 139 161 192 25 319 329 340 355 71 323 307 320 327 332 338 336 328 330 315 309 307 299 274 278 291 301 300 295 293 294 296 295 297 288 287 287 283 286
228 335 250 263 265 280 204 204 347 348 303 320 337 3 351 278 288 298 306 317 322 323 321 324 317 312 312 313 304 287 296 297 291 291 296 299 298 299 299 297 292 289 285 286
243 212 249 259 280 309 231 237 295 320 359 19 18 7 326 262 286 288 295 296 297 307 310 307 300 297 303 311 303 301 299 296 294 294 297 303 304 302 299 298 288 290 273 278
208 209 219 243 243 243 273 290 324 341 337 5 11 343 329 274 269 290 293 290 294 302 307 307 302 300 303 305 302 301 296 289 290 300 303 302 302 302 304 304 307 302 302 305